Binghamton, NY

6:01 PM EST on December 06, 2019 (GMT -0500)
Binghamton Regional-Link

Weather History for KBGM - May, 2019

Change the Weather History Date:

Wednesday, May 8, 2019

  Actual Average Record
Temperature  
Mean Temperature 51 °F 53 °F  
Max Temperature 60 °F 63 °F 85 °F (2015)
Min Temperature 42 °F 44 °F 26 °F (1956)
Degree Days  
Heating Degree Days 14 12  
Month to date heating degree days 76 105  
Since 1 July heating degree days 6866 6904  
Cooling Degree Days 0 0  
Month to date cooling degree days 0 0  
Year to date cooling degree days 0 4  
Growing Degree Days 1 (Base 50)    
Moisture  
Dew Point 38 °F    
Average Humidity 65    
Maximum Humidity 100    
Minimum Humidity 29    
Precipitation  
Precipitation T in 0.11 in 0.80 in (1972)
Month to date precipitation 1.20 0.87  
Year to date precipitation 12.68 12.05  
Snow  
Snow 0.00 in 0.00 in 1.40 in (1989)
Month to date snowfall 0.0 0.1  
Since 1 July snowfall 81.4 83.4  
Snow Depth 0.00 in    
Sea Level Pressure  
Sea Level Pressure 30.26 in    
Wind  
Wind Speed 6 mph (NNE)    
Max Wind Speed 14 mph    
Max Gust Speed 21 mph    
Visibility 8 miles    
Events Fog    
T = Trace of Precipitation, MM = Missing Value Source: NWS Daily Summary

Daily Weather History Graph

Daily Weather History Graph

Search for Another Location

Airport or City:

Astronomy

May. 08, 2019 Rise Set
Actual Time 5:50 AM EDT 8:10 PM EDT
Civil Twilight 5:19 AM EDT 8:42 PM EDT
Nautical Twilight 4:40 AM EDT 9:20 PM EDT
Astronomical Twilight 3:58 AM EDT 10:04 PM EDT
Moon 8:44 AM EDT (5/8) No Moon Set
Length of Visible Light 15h 22m
Length of Day
14h 19m
Waxing Crescent, 15% of the Moon is Illuminated
May 8
Waxing Crescent
May 11
First Quarter
May 18
Full
May 26
Last Quarter
Jun 3
New

Hourly Weather History & Observations

Time (EDT) Temp. Windchill Dew Point Humidity Pressure Visibility Wind Dir Wind Speed Gust Speed Precip Events Conditions
12:53 AM 45.0 °F 41.8 °F 43.0 °F 93% 30.23 in 10.0 mi NNE 5.8 mph - N/A   Overcast
1:53 AM 44.1 °F 40.1 °F 42.1 °F 93% 30.22 in 10.0 mi NNE 6.9 mph - N/A   Overcast
2:53 AM 44.1 °F 42.5 °F 42.1 °F 93% 30.22 in 10.0 mi NNE 3.5 mph - N/A   Overcast
3:53 AM 44.1 °F - 42.1 °F 93% 30.23 in 10.0 mi Calm Calm - N/A   Overcast
4:42 AM 44.1 °F 42.5 °F 43.0 °F 96% 30.22 in 8.0 mi NNE 3.5 mph - 0.00 in   Overcast
4:53 AM 44.1 °F 42.5 °F 42.1 °F 93% 30.25 in 8.0 mi North 3.5 mph - 0.00 in   Overcast
5:04 AM 44.1 °F 42.5 °F 42.1 °F 93% 30.23 in 7.0 mi North 3.5 mph - N/A   Overcast
5:49 AM 42.8 °F 41.1 °F 42.8 °F 100% 30.23 in 5.0 mi North 3.5 mph - N/A   Overcast
5:53 AM 43.0 °F 40.3 °F 42.1 °F 97% 30.26 in 4.0 mi NNE 4.6 mph - N/A   Overcast
6:03 AM 43.0 °F 40.3 °F 42.1 °F 97% 30.23 in 2.0 mi NNE 4.6 mph - N/A   Overcast
6:10 AM 43.0 °F 40.3 °F 42.1 °F 97% 30.24 in 1.2 mi NE 4.6 mph - N/A   Overcast
6:16 AM 43.0 °F 39.5 °F 42.1 °F 97% 30.24 in 0.2 mi NE 5.8 mph - N/A Fog Fog
6:25 AM 42.1 °F 38.4 °F 42.1 °F 100% 30.24 in 0.5 mi NE 5.8 mph - N/A Fog Fog
6:36 AM 43.0 °F 38.8 °F 42.1 °F 97% 30.24 in 1.0 mi ENE 6.9 mph - N/A   Overcast
6:53 AM 43.0 °F 39.5 °F 41.0 °F 93% 30.27 in 1.0 mi NE 5.8 mph - N/A   Overcast
7:07 AM 43.0 °F 38.2 °F 41.0 °F 93% 30.25 in 3.0 mi NNE 8.1 mph - N/A   Overcast
7:53 AM 44.1 °F 41.5 °F 41.0 °F 89% 30.29 in 3.0 mi North 4.6 mph - N/A   Overcast
8:06 AM 44.1 °F 39.5 °F 42.1 °F 93% 30.27 in 3.0 mi North 8.1 mph - N/A   Overcast
8:53 AM 44.1 °F 42.5 °F 41.0 °F 89% 30.32 in 10.0 mi NNE 3.5 mph - N/A   Overcast
9:53 AM 45.0 °F 41.2 °F 41.0 °F 86% 30.32 in 10.0 mi North 6.9 mph - N/A   Overcast
10:10 AM 46.9 °F - 41.0 °F 80% 30.30 in 10.0 mi NNW 5.8 mph - N/A   Overcast
10:46 AM 48.0 °F - 41.0 °F 77% 30.30 in 10.0 mi NNE 9.2 mph - N/A   Overcast
10:53 AM 48.9 °F - 41.0 °F 74% 30.32 in 10.0 mi ENE 8.1 mph - N/A   Overcast
11:53 AM 53.1 °F - 43.0 °F 69% 30.32 in 10.0 mi Variable 6.9 mph - N/A   Mostly Cloudy
12:13 PM 54.0 °F - 42.1 °F 64% 30.29 in 10.0 mi Variable 4.6 mph - N/A   Mostly Cloudy
12:53 PM 55.0 °F - 39.9 °F 57% 30.29 in 10.0 mi NNE 8.1 mph - N/A   Scattered Clouds
1:53 PM 57.0 °F - 39.0 °F 51% 30.27 in 10.0 mi North 8.1 mph - N/A   Clear
2:53 PM 57.9 °F - 35.1 °F 42% 30.26 in 10.0 mi Variable 6.9 mph - N/A   Clear
3:53 PM 59.0 °F - 36.0 °F 42% 30.25 in 10.0 mi East 8.1 mph - N/A   Clear
4:53 PM 60.1 °F - 33.1 °F 36% 30.25 in 10.0 mi North 8.1 mph - N/A   Clear
5:53 PM 60.1 °F - 28.9 °F 31% 30.25 in 10.0 mi ENE 5.8 mph - N/A   Clear
6:53 PM 57.9 °F - 28.0 °F 32% 30.23 in 10.0 mi North 8.1 mph - N/A   Clear
7:53 PM 54.0 °F - 28.0 °F 37% 30.25 in 10.0 mi North 5.8 mph - N/A   Clear
8:53 PM 51.1 °F - 27.0 °F 39% 30.27 in 10.0 mi NE 5.8 mph - N/A   Clear
9:53 PM 50.0 °F - 28.0 °F 43% 30.28 in 10.0 mi NE 6.9 mph - N/A   Clear
10:53 PM 48.9 °F - 27.0 °F 43% 30.27 in 10.0 mi NE 6.9 mph - N/A   Clear
11:53 PM 46.9 °F - 28.0 °F 48% 30.27 in 10.0 mi ENE 6.9 mph - N/A   Partly Cloudy